This is the latest recevied weather packets stored in our database for station/object XE2RCS-21. If no packets are shown the sender has not sent any weather packets the latest 10 day(s).
| Time | Temp. | Humidity | Pressure | Rain* | Wind** | Luminosity | Snow |
|---|---|---|---|---|---|---|---|
| 1777672827 | 32.22° C | 44% | 1015.8 hPa | - | - | - | - |
| 1777671029 | 33.89° C | 45% | 1016 hPa | - | - | - | - |
| 1777669229 | 31.11° C | 47% | 1016.1 hPa | - | - | - | - |
| 1777667429 | 33.33° C | 36% | 1016.5 hPa | - | - | - | - |
| 1777665629 | 36.11° C | 39% | 1017 hPa | - | - | - | - |
| 1777663829 | 30.56° C | 62% | 1017 hPa | - | - | - | - |
| 1777662029 | 28.89° C | 99% | 1016.6 hPa | - | - | - | - |
| 1777660228 | 31.11° C | 86% | 1017.3 hPa | - | - | - | - |
| 1777658428 | 31.11° C | 100% | 1016.4 hPa | - | - | - | - |
| 1777656628 | 27.78° C | 100% | 1013.1 hPa | - | - | - | - |
| 1777654828 | 26.67° C | 100% | 1013.2 hPa | - | - | - | - |
| 1777653028 | 26.67° C | 100% | 1014 hPa | - | - | - | - |
| 1777651226 | 28.33° C | 100% | 1013.1 hPa | - | - | - | - |
| 1777649427 | 29.44° C | 100% | 1013.3 hPa | - | - | - | - |
| 1777647627 | 25.56° C | 100% | 1010.8 hPa | - | - | - | - |
| 1777645827 | 27.22° C | 100% | 1007.9 hPa | - | - | - | - |
| 1777644027 | 22.78° C | 100% | 1004.5 hPa | - | - | - | - |
| 1777642227 | 21.11° C | 100% | 1001.2 hPa | - | - | - | - |
| 1777640426 | 21.11° C | 100% | 993 hPa | - | - | - | - |
| 1777638626 | 20.56° C | 100% | 986.7 hPa | - | - | - | - |
| 1777636826 | 20° C | 100% | 984.1 hPa | - | - | - | - |
| 1777635026 | 20° C | 100% | 983.5 hPa | - | - | - | - |
| 1777633226 | 20° C | 100% | 983.4 hPa | - | - | - | - |
| 1777631426 | 20° C | 100% | 987.6 hPa | - | - | - | - |
| 1777629625 | 20.56° C | 100% | 983.5 hPa | - | - | - | - |
* Rain since midnight (hover to see other rain measurements)
** Current wind speed in m/s (hover to see current wind gust speed)